Glonass Operational
NORAD ID: 32395
Int'l Code: 2007-065C
Perigee: 19,090.8 km
Apogee: 19,183.1 km
Inclination: 65.5 °
Period: 675.7 minutes
Semi major axis: 25507 km
Launch date: December 25, 2007
Source: Commonwealth of Independent States (former USSR) (CIS)
SV:
Comments: Glonass is a radio satellite navigation system, the former Soviet and now Russian counterpart to the United States' GPS system and the European Union's embryonic Galileo positioning system. It is operated for the Russian government by the Russian Space Forces.
Two Line Element Set (TLE):
1 32395U 07065C 13139.12087255 -.00000030 00000-0 10000-3 0 2987
2 32395 065.5331 354.7246 0018074 000.5566 179.6486 02.13102997 41932
Source: AFSPC
NASA's NSSDC Master Catalog entry for COSMOS 2436 (GLONASS)